Location: Bilsen
(53.7722°N, 9.8765°E)
Time: 01:44:02
(UTC+00:00)

SL-16 R/B - Pass Details

Date: 18 February 2020
Orbit: 843 x 847 km, 71.0° (Epoch: 09 April)

Event Time Altitude Azimuth Distance (km) Brightness Sun altitude
Exits shadow 04:29:10 29° 232° (SW) 1,501 3.0 -19.1°
Maximum altitude 04:32:04 66° 306° (NW) 922 2.2 -18.7°
Drops below altitude 10° 04:37:44 10° 29° (NNE) 2,477 5.1 -17.9°
Sets 04:40:13 0° 33° (NNE) 3,415 5.9 -17.5°
